Weather History for Metropolis, IL

Change the Weather History Date:

Friday, October 14, 2011

  Actual Average (KPAH) Record (KPAH)
Temperature  
Mean Temperature 62 °F 59 °F  
Max Temperature 73 °F 72 °F 88 °F (1940)
Min Temperature 51 °F 47 °F 30 °F (1979)
Degree Days  
Heating Degree Days 3 7  
Month to date heating degree days 76  
Since 1 July heating degree days 115  
Cooling Degree Days 0 1  
Month to date cooling degree days 25  
Year to date cooling degree days 1525  
Growing Degree Days 12 (Base 50)    
Moisture  
Dew Point 41 °F    
Average Humidity 50    
Maximum Humidity 77    
Minimum Humidity 23    
Precipitation  
Precipitation 0.00 in 0.12 in 1.97 in (1974)
Month to date precipitation 1.82  
Year to date precipitation 38.05  
Snow  
Snow 0.00 in 0.00 in 0.00 in (2002)
Month to date snowfall 0.0  
Since 1 July snowfall 0.0  
Since 1 September snowfall 0.0  
Snow Depth -    
Sea Level Pressure  
Sea Level Pressure 29.82 in    
Wind  
Wind Speed 7 mph (West)    
Max Wind Speed 15 mph    
Max Gust Speed 22 mph    
Visibility 10 miles    
Events      
T = Trace of Precipitation, MM = Missing Value Source: NWS Daily Summary

Daily Weather History Graph

Daily Weather History Graph

Search for Another Location

Airport:

Trip Planner

Search our weather history database for the weather conditions in past years. The results will help you decide how hot, cold, wet, or windy it might be!

Date:

Astronomy

Oct. 14, 2011 Rise Set
Actual Time 7:01 AM CDT 6:19 PM CDT
Civil Twilight 6:35 AM CDT 6:45 PM CDT
Nautical Twilight 6:05 AM CDT 7:16 PM CDT
Astronomical Twilight 5:35 AM CDT 7:46 PM CDT
Moon 7:38 PM CDT (10/14) 9:25 AM CDT (10/14)
Length of Visible Light 12h 10m
Length of Day
11h 18m
Waning Gibbous, 94% of the Moon is Illuminated
Oct 14
Waning Gibbous
Oct 19
Last Quarter
Oct 26
New
Nov 2
First Quarter
Nov 10
Full

Hourly Weather History & Observations

Time (CDT) Temp. Dew Point Humidity Pressure Visibility Wind Dir Wind Speed Gust Speed Precip Events Conditions
12:15 AM 59.0 °F 46.4 °F 63% 29.74 in 10.0 mi West 5.8 mph - N/A   Clear
12:35 AM 59.0 °F 46.4 °F 63% 29.74 in 10.0 mi West 6.9 mph - N/A   Clear
12:55 AM 59.0 °F 46.4 °F 63% 29.75 in 10.0 mi West 6.9 mph - N/A   Clear
1:15 AM 59.0 °F 46.4 °F 63% 29.75 in 10.0 mi West 4.6 mph - N/A   Clear
1:35 AM 57.2 °F 46.4 °F 67% 29.76 in 10.0 mi WSW 5.8 mph - N/A   Clear
1:55 AM 57.2 °F 46.4 °F 67% 29.76 in 10.0 mi West 5.8 mph - N/A   Clear
2:15 AM 55.4 °F 46.4 °F 72% 29.77 in 10.0 mi WSW 4.6 mph - N/A   Clear
2:35 AM 55.4 °F 46.4 °F 72% 29.77 in 10.0 mi WSW 4.6 mph - N/A   Clear
2:55 AM 53.6 °F 46.4 °F 77% 29.77 in 10.0 mi WSW 5.8 mph - N/A   Clear
3:15 AM 53.6 °F 46.4 °F 77% 29.77 in 10.0 mi WSW 3.5 mph - N/A   Clear
3:35 AM 53.6 °F 44.6 °F 72% 29.77 in 10.0 mi WSW 3.5 mph - N/A   Clear
3:55 AM 53.6 °F 44.6 °F 72% 29.77 in 10.0 mi WSW 4.6 mph - N/A   Clear
4:15 AM 53.6 °F 44.6 °F 72% 29.77 in 10.0 mi WSW 4.6 mph - N/A   Clear
4:35 AM 53.6 °F 44.6 °F 72% 29.78 in 10.0 mi WSW 6.9 mph - N/A   Clear
4:55 AM 53.6 °F 44.6 °F 72% 29.78 in 10.0 mi WSW 5.8 mph - N/A   Clear
5:15 AM 53.6 °F 44.6 °F 72% 29.78 in 10.0 mi WSW 5.8 mph - N/A   Clear
5:35 AM 53.6 °F 44.6 °F 72% 29.79 in 10.0 mi WSW 5.8 mph - N/A   Clear
5:55 AM 53.6 °F 44.6 °F 72% 29.80 in 10.0 mi WSW 6.9 mph - N/A   Clear
6:15 AM 53.6 °F 44.6 °F 72% 29.80 in 10.0 mi WSW 4.6 mph - N/A   Clear
6:35 AM 51.8 °F 44.6 °F 76% 29.81 in 10.0 mi West 5.8 mph - N/A   Clear
6:55 AM 51.8 °F 44.6 °F 76% 29.81 in 10.0 mi WSW 4.6 mph - N/A   Clear
7:15 AM 51.8 °F 44.6 °F 76% 29.81 in 10.0 mi WSW 6.9 mph - N/A   Scattered Clouds
7:55 AM 53.6 °F 44.6 °F 72% 29.83 in 10.0 mi WSW 5.8 mph - N/A   Clear
8:15 AM 55.4 °F 44.6 °F 67% 29.83 in 10.0 mi WSW 6.9 mph - N/A   Clear
8:35 AM 55.4 °F 44.6 °F 67% 29.84 in 10.0 mi West 6.9 mph - N/A   Clear
8:55 AM 59.0 °F 44.6 °F 59% 29.85 in 10.0 mi West 6.9 mph - N/A   Clear
9:15 AM 59.0 °F 44.6 °F 59% 29.86 in 10.0 mi West 5.8 mph - N/A   Clear
9:35 AM 60.8 °F 46.4 °F 59% 29.86 in 10.0 mi West 6.9 mph - N/A   Clear
9:55 AM 62.6 °F 44.6 °F 52% 29.87 in 10.0 mi West 11.5 mph - N/A   Clear
10:15 AM 64.4 °F 42.8 °F 45% 29.87 in 10.0 mi West 9.2 mph - N/A   Clear
10:35 AM 66.2 °F 41.0 °F 40% 29.87 in 10.0 mi WNW 12.7 mph 16.1 mph N/A   Clear
10:55 AM 68.0 °F 39.2 °F 35% 29.88 in 10.0 mi WNW 10.4 mph 18.4 mph N/A   Clear
11:15 AM 68.0 °F 39.2 °F 35% 29.88 in 10.0 mi WNW 11.5 mph 18.4 mph N/A   Clear
11:35 AM 69.8 °F 37.4 °F 31% 29.88 in 10.0 mi WNW 13.8 mph 19.6 mph N/A   Clear
11:55 AM 69.8 °F 35.6 °F 28% 29.88 in 10.0 mi WNW 12.7 mph 21.9 mph N/A   Clear
12:15 PM 71.6 °F 35.6 °F 27% 29.88 in 10.0 mi WNW 10.4 mph 17.3 mph N/A   Clear
12:35 PM 71.6 °F 35.6 °F 27% 29.87 in 10.0 mi West 15.0 mph 20.7 mph N/A   Clear
12:55 PM 71.6 °F 35.6 °F 27% 29.87 in 10.0 mi West 12.7 mph 17.3 mph N/A   Clear
1:15 PM 71.6 °F 33.8 °F 25% 29.86 in 10.0 mi West 11.5 mph 19.6 mph N/A   Clear
1:35 PM 71.6 °F 35.6 °F 27% 29.85 in 10.0 mi West 8.1 mph 17.3 mph N/A   Clear
1:55 PM 71.6 °F 35.6 °F 27% 29.84 in 10.0 mi West 11.5 mph 17.3 mph N/A   Clear
2:15 PM 73.4 °F 35.6 °F 25% 29.83 in 10.0 mi West 10.4 mph 17.3 mph N/A   Clear
2:35 PM 73.4 °F 33.8 °F 23% 29.83 in 10.0 mi West 10.4 mph 18.4 mph N/A   Clear
2:55 PM 73.4 °F 33.8 °F 23% 29.83 in 10.0 mi West 12.7 mph 17.3 mph N/A   Clear
3:15 PM 73.4 °F 35.6 °F 25% 29.83 in 10.0 mi WSW 11.5 mph 18.4 mph N/A   Clear
3:35 PM 73.4 °F 35.6 °F 25% 29.82 in 10.0 mi West 10.4 mph 16.1 mph N/A   Clear
3:55 PM 73.4 °F 35.6 °F 25% 29.82 in 10.0 mi West 11.5 mph 18.4 mph N/A   Clear
4:15 PM 73.4 °F 37.4 °F 27% 29.82 in 10.0 mi West 10.4 mph 17.3 mph N/A   Clear
4:35 PM 73.4 °F 37.4 °F 27% 29.82 in 10.0 mi West 10.4 mph 17.3 mph N/A   Clear
4:55 PM 71.6 °F 37.4 °F 29% 29.82 in 10.0 mi West 9.2 mph 17.3 mph N/A   Clear
5:15 PM 71.6 °F 37.4 °F 29% 29.83 in 10.0 mi West 6.9 mph - N/A   Clear
5:35 PM 69.8 °F 39.2 °F 33% 29.83 in 10.0 mi West 5.8 mph - N/A   Scattered Clouds
5:55 PM 68.0 °F 39.2 °F 35% 29.82 in 10.0 mi West 3.5 mph - N/A   Scattered Clouds
6:15 PM 68.0 °F 39.2 °F 35% 29.82 in 10.0 mi WSW 4.6 mph - N/A   Clear
6:35 PM 66.2 °F 39.2 °F 37% 29.83 in 10.0 mi West 4.6 mph - N/A   Scattered Clouds
6:55 PM 66.2 °F 41.0 °F 40% 29.84 in 10.0 mi West 5.8 mph - N/A   Clear
7:15 PM 66.2 °F 39.2 °F 37% 29.85 in 10.0 mi West 3.5 mph - N/A   Clear
8:15 PM 66.2 °F 39.2 °F 37% 29.88 in 10.0 mi West 6.9 mph - N/A   Clear
8:35 PM 66.2 °F 37.4 °F 35% 29.88 in 10.0 mi WNW 6.9 mph - N/A   Clear
8:55 PM 66.2 °F 35.6 °F 32% 29.89 in 10.0 mi WNW 10.4 mph - N/A   Clear
9:15 PM 66.2 °F 35.6 °F 32% 29.90 in 10.0 mi WNW 9.2 mph 17.3 mph N/A   Clear
9:35 PM 64.4 °F 33.8 °F 32% 29.91 in 10.0 mi WNW 9.2 mph 16.1 mph N/A   Clear
9:55 PM 64.4 °F 33.8 °F 32% 29.91 in 10.0 mi WNW 6.9 mph - N/A   Clear
10:15 PM 62.6 °F 33.8 °F 34% 29.92 in 10.0 mi WNW 6.9 mph - N/A   Clear
10:35 PM 62.6 °F 33.8 °F 34% 29.93 in 10.0 mi WNW 9.2 mph - N/A   Clear
10:55 PM 62.6 °F 33.8 °F 34% 29.94 in 10.0 mi WNW 8.1 mph - N/A   Clear
11:15 PM 62.6 °F 33.8 °F 34% 29.94 in 10.0 mi WNW 6.9 mph - N/A   Clear
11:35 PM 60.8 °F 33.8 °F 36% 29.95 in 10.0 mi NW 8.1 mph - N/A   Clear
11:55 PM 60.8 °F 33.8 °F 36% 29.96 in 10.0 mi NW 4.6 mph - N/A   Clear